Location: Arpaise
(41.0333°N, 14.7333°E)
Time: 16:06:05
(UTC+00:00)

NOSS 3-3 (A) - Pass Details

Date: 05 July 2020
Orbit: 825 x 1387 km, 63.4° (Epoch: 07 August)

Event Time Altitude Azimuth Distance (km) Brightness Sun altitude
Rises 20:24:55 0° 206° (SSW) 3,373 6.6 -16.2°
Reaches altitude 10° 20:27:16 10° 204° (SSW) 2,472 5.9 -16.4°
Maximum altitude 20:32:55 73° 121° (ESE) 950 3.8 -17.1°
Drops below altitude 10° 20:39:17 10° 38° (NE) 2,767 6.6 -17.8°
Sets 20:42:03 0° 37° (NE) 3,806 7.3 -18.1°
